Date String (YYYY-MM-DD hh:mm:ss) UTC,Instrument flags,absolute air pressure of the measurement (hPa),sample flow rate (lpm),inlet stack bypass flow (lpm),air temperature of the measurement (°C),ambient temperature measured by the external sensor (°C),aerosol sample conditioner tube jacket temperature (°C),OPC LED temperature (°C),internal box temperature (°C),relative humidity of the measurement (%),span deviation,mass concentration of particles derived from Lorenz-Mie calculation of OPC scattering (μg/m³),mass concentration of particles derived from Lorenz-Mie calculation of OPC scattering (μg/m³),mass concentration of particles derived from Lorenz-Mie calculation of OPC scattering (μg/m³)
DateTimeUTC,F1_M11,P_M11,Q1_M11,Q2_M11,T1_M11,T2_M11,T3_M11,T4_M11,T5_M11,U1_M11,ZSPAN_M11,X0_M11,X2_M11,X1_M11
2023-10-12 23:00:00,SystemResetWarning,0818.1,5.00,000.00,027.9,026.1,000.0,036.5,029.5,11.2,0000.0,0002.19,0000.21,0000.06
2023-10-12 23:01:00,SystemResetWarning,0818.1,5.00,000.00,027.9,026.1,000.0,036.5,029.4,11.0,0000.0,0001.28,0000.22,0000.06
2023-10-12 23:02:00,SystemResetWarning,0818.2,5.00,000.00,027.9,026.2,000.0,036.5,029.5,11.0,0000.0,0000.85,0000.22,0000.06
2023-10-12 23:03:00,SystemResetWarning,0818.2,5.00,000.00,027.9,026.2,000.0,036.5,029.5,11.1,0000.0,0000.82,0000.22,0000.05
2023-10-12 23:04:00,SystemResetWarning,0818.1,5.00,000.00,027.9,026.2,000.0,036.5,029.5,11.1,0000.0,0000.67,0000.19,0000.05
2023-10-12 23:05:00,SystemResetWarning,0818.1,5.00,000.00,027.9,026.2,000.0,036.4,029.5,11.0,0000.0,0000.70,0000.19,0000.05
2023-10-12 23:06:00,SystemResetWarning,0818.2,5.00,000.00,027.9,026.2,000.0,036.5,029.5,11.1,0000.0,0000.92,0000.22,0000.05
2023-10-12 23:07:00,SystemResetWarning,0818.1,5.00,000.00,027.9,026.2,000.0,036.4,029.5,11.1,0000.0,0001.10,0000.25,0000.05
2023-10-12 23:08:00,SystemResetWarning,0818.1,5.00,000.00,027.9,026.2,000.0,036.4,029.5,11.2,0000.0,0001.16,0000.27,0000.05
2023-10-12 23:09:00,SystemResetWarning,0818.2,5.00,000.00,027.9,026.1,000.0,036.4,029.5,11.1,0000.0,0001.20,0000.29,0000.05
2023-10-12 23:10:00,SystemResetWarning,0818.3,4.99,000.00,027.8,026.1,000.0,036.4,029.4,11.1,0000.0,0001.21,0000.31,0000.06
2023-10-12 23:11:00,SystemResetWarning,0818.3,5.00,000.00,027.8,026.1,000.0,036.4,029.4,11.1,0000.0,0002.04,0000.33,0000.06
2023-10-12 23:12:00,SystemResetWarning,0818.4,5.00,000.00,027.8,026.1,000.0,036.4,029.4,10.9,0000.0,0002.40,0000.35,0000.06
2023-10-12 23:13:00,SystemResetWarning,0818.4,5.00,000.00,027.8,026.1,000.0,036.4,029.4,10.9,0000.0,0002.56,0000.38,0000.06
2023-10-12 23:14:00,SystemResetWarning,0818.4,5.01,000.00,027.8,026.1,000.0,036.4,029.4,11.0,0000.0,0002.70,0000.39,0000.06
2023-10-12 23:15:00,SystemResetWarning,0818.5,5.00,000.00,027.8,026.1,000.0,036.4,029.4,11.1,0000.0,0003.61,0000.41,0000.06
2023-10-12 23:16:00,SystemResetWarning,0818.6,5.00,000.00,027.8,026.1,000.0,036.4,029.4,11.1,0000.0,0005.28,0000.42,0000.06
2023-10-12 23:17:00,SystemResetWarning,0818.7,5.01,000.00,027.8,026.1,000.0,036.4,029.4,11.1,0000.0,0005.08,0000.39,0000.06
2023-10-12 23:18:00,SystemResetWarning,0818.6,5.00,000.00,027.8,026.1,000.0,036.4,029.4,11.1,0000.0,0005.17,0000.40,0000.07
2023-10-12 23:19:00,SystemResetWarning,0818.7,5.00,000.00,027.8,026.2,000.0,036.4,029.4,11.2,0000.0,0005.16,0000.40,0000.07
2023-10-12 23:20:00,SystemResetWarning,0818.7,4.98,000.00,027.8,026.2,000.0,036.4,029.4,11.2,0000.0,0005.12,0000.38,0000.07
2023-10-12 23:21:00,SystemResetWarning,0818.7,5.00,000.00,027.8,026.2,000.0,036.4,029.4,11.1,0000.0,0005.13,0000.38,0000.06
2023-10-12 23:22:00,SystemResetWarning,0818.8,5.00,000.00,027.8,026.2,000.0,036.4,029.5,11.1,0000.0,0006.28,0000.42,0000.06
2023-10-12 23:23:00,SystemResetWarning,0818.8,5.00,000.00,027.8,026.2,000.0,036.4,029.5,11.1,0000.0,0007.41,0000.43,0000.06
2023-10-12 23:24:00,SystemResetWarning,0818.8,5.00,000.00,027.8,026.3,000.0,036.4,029.5,11.1,0000.0,0007.65,0000.46,0000.06
2023-10-12 23:25:00,SystemResetWarning,0819.0,5.00,000.00,027.8,026.3,000.0,036.4,029.5,11.0,0000.0,0008.32,0000.53,0000.06
2023-10-12 23:26:00,SystemResetWarning,0819.3,5.00,000.00,027.9,026.3,000.0,036.4,029.5,11.1,0000.0,0008.54,0000.57,0000.07
2023-10-12 23:27:00,SystemResetWarning,0819.2,5.00,000.00,027.9,026.3,000.0,036.4,029.5,11.1,0000.0,0007.61,0000.59,0000.08
2023-10-12 23:28:00,SystemResetWarning,0819.2,5.00,000.00,027.9,026.4,000.0,036.4,029.5,11.0,0000.0,0007.99,0000.65,0000.08
2023-10-12 23:29:00,SystemResetWarning,0819.0,5.00,000.00,027.9,026.4,000.0,036.4,029.5,10.9,0000.0,0007.84,0000.61,0000.07
2023-10-12 23:30:00,SystemResetWarning,0819.1,5.00,000.00,027.9,026.4,000.0,036.4,029.5,11.0,0000.0,0007.79,0000.59,0000.08
2023-10-12 23:31:00,SystemResetWarning,0819.0,5.00,000.00,027.9,026.4,000.0,036.4,029.5,11.0,0000.0,0007.79,0000.59,0000.08
2023-10-12 23:32:00,SystemResetWarning,0819.1,5.00,000.00,027.9,026.4,000.0,036.4,029.5,10.8,0000.0,0007.80,0000.60,0000.08
2023-10-12 23:33:00,SystemResetWarning,0819.2,5.00,000.00,027.9,026.4,000.0,036.4,029.6,10.9,0000.0,0006.60,0000.57,0000.09
2023-10-12 23:34:00,SystemResetWarning,0819.3,5.00,000.00,027.9,026.4,000.0,036.4,029.6,11.0,0000.0,0004.79,0000.54,0000.09
2023-10-12 23:35:00,SystemResetWarning,0819.3,5.00,000.00,027.9,026.5,000.0,036.4,029.6,11.0,0000.0,0004.76,0000.53,0000.09
2023-10-12 23:36:00,SystemResetWarning,0819.3,4.99,000.00,027.9,026.5,000.0,036.4,029.6,11.1,0000.0,0003.32,0000.45,0000.08
2023-10-12 23:37:00,SystemResetWarning,0819.4,5.00,000.00,028.0,026.6,000.0,036.4,029.7,11.3,0000.0,0002.50,0000.38,0000.08
2023-10-12 23:38:00,SystemResetWarning,0819.4,5.00,000.00,028.0,026.6,000.0,036.4,029.7,12.8,0000.0,0001.87,0000.33,0000.07
2023-10-12 23:39:00,SystemResetWarning,0819.4,5.00,000.00,028.0,026.6,000.0,036.4,029.7,13.7,0000.0,0001.67,0000.25,0000.07
2023-10-12 23:40:00,SystemResetWarning,0819.5,4.99,000.00,028.0,026.6,000.0,036.4,029.7,14.2,0000.0,0002.36,0000.24,0000.07
2023-10-12 23:41:00,SystemResetWarning,0819.5,5.00,000.00,028.0,026.6,000.0,036.4,029.7,14.4,0000.0,0002.36,0000.24,0000.06
2023-10-12 23:42:00,SystemResetWarning,0819.5,5.00,000.00,028.0,026.6,000.0,036.4,029.7,14.5,0000.0,0002.33,0000.23,0000.06
2023-10-12 23:43:00,SystemResetWarning,0819.6,5.00,000.00,028.0,026.6,000.0,036.4,029.7,14.6,0000.0,0002.32,0000.23,0000.06
2023-10-12 23:44:00,SystemResetWarning,0819.6,5.00,000.00,028.0,026.6,000.0,036.4,029.7,14.6,0000.0,0002.23,0000.20,0000.06
2023-10-12 23:45:00,SystemResetWarning,0820.1,5.00,000.00,028.0,026.7,000.0,036.4,029.7,14.8,0000.0,0001.97,0000.15,0000.05
2023-10-12 23:46:00,SystemResetWarning,0819.9,5.00,000.00,028.1,026.7,000.0,036.4,029.8,14.9,0000.0,0001.87,0000.13,0000.05
2023-10-12 23:47:00,SystemResetWarning,0819.8,5.00,000.00,028.1,026.7,000.0,036.4,029.8,14.9,0000.0,0001.90,0000.13,0000.05
2023-10-12 23:48:00,SystemResetWarning,0819.7,5.00,000.00,028.1,026.7,000.0,036.4,029.8,15.0,0000.0,0001.86,0000.11,0000.05
2023-10-12 23:49:00,SystemResetWarning,0819.7,5.00,000.00,028.1,026.7,000.0,036.4,029.8,15.1,0000.0,0001.89,0000.12,0000.05
2023-10-12 23:50:00,SystemResetWarning,0819.8,5.00,000.00,028.1,026.7,000.0,036.5,029.8,15.1,0000.0,0001.32,0000.13,0000.05
2023-10-12 23:51:00,SystemResetWarning,0820.1,5.00,000.00,028.1,026.7,000.0,036.5,029.8,15.0,0000.0,0000.32,0000.13,0000.05
2023-10-12 23:52:00,SystemResetWarning,0820.0,5.00,000.00,028.1,026.7,000.0,036.5,029.8,15.0,0000.0,0000.41,0000.17,0000.06
2023-10-12 23:53:00,SystemResetWarning,0819.9,4.99,000.00,028.1,026.7,000.0,036.5,029.8,15.1,0000.0,0000.43,0000.18,0000.05
2023-10-12 23:54:00,SystemResetWarning,0820.1,5.00,000.00,028.1,026.7,000.0,036.5,029.8,15.2,0000.0,0000.43,0000.17,0000.05
2023-10-12 23:55:00,SystemResetWarning,0820.2,5.00,000.00,028.1,026.7,000.0,036.5,029.8,15.1,0000.0,0000.43,0000.17,0000.05
2023-10-12 23:56:00,SystemResetWarning,0820.1,5.01,000.00,028.1,026.7,000.0,036.5,029.8,14.8,0000.0,0000.47,0000.19,0000.05
2023-10-12 23:57:00,SystemResetWarning,0819.9,5.00,000.00,028.1,026.7,000.0,036.5,029.8,14.6,0000.0,0000.50,0000.19,0000.05
2023-10-12 23:58:00,SystemResetWarning,0820.1,5.00,000.00,028.1,026.7,000.0,036.5,029.8,14.5,0000.0,0000.45,0000.18,0000.04
2023-10-12 23:59:00,SystemResetWarning,0820.1,5.01,000.00,028.1,026.7,000.0,036.5,029.8,14.4,0000.0,0000.44,0000.18,0000.05
